[[{"header":{"parameterUnit":"m.s-1","parameterCategory":1,"la1":30.2991,"la2":30.254,"lo1":-89.0895,"lo2":-89.0444,"dy":0.0017,"dx":0.0017,"nx":28,"ny":28,"refTime":"2025-07-13T09:00:00:Z","depth":0,"parameterNumber":2,"parameterNumberName":"U-component_of_WINDS"},"data":[0,0,0,0,0,0,0,0,0,0,0,0,0,0,0,0,0,0,0,0,0,0,0,0,0,0,0,0,0,0,0,0,0,0,0,0,0,0,0,0,0,0,0,0,0,0,0,0,0,0,0,0,0,0,0,0,0,0,3.4778,3.4779,0,3.4872,3.4873,3.4874,3.4819,3.4816,3.4813,3.4811,3.4906,3.491,3.4915,0,0,0,0,0,0,0,0,0,0,0,0,0,3.455,3.4555,3.4777,3.4779,3.478,3.4871,3.4873,3.4874,3.4819,3.4816,3.4813,3.481,3.4904,3.491,3.4916,0,0,0,0,0,0,0,0,0,0,0,0,0,3.4647,3.4556,3.4777,3.4763,3.4763,3.4871,3.4873,3.4874,3.482,3.4816,3.4812,3.4808,3.4902,3.4909,3.4917,3.5043,0,0,3.494,3.4943,0,0,0,0,0,0,0,0,3.4642,3.4656,3.4764,3.4765,3.4764,3.4829,3.4827,3.4931,3.4821,3.4798,3.4811,3.4806,3.4883,3.4892,3.4918,3.5047,3.5051,3.494,3.4945,3.4948,3.495,0,0,0,0,0,0,0,3.4635,3.4651,3.4815,3.4766,3.4766,3.4753,3.4762,3.4847,3.4862,3.48,3.4796,3.4808,3.4882,3.4911,3.492,3.5053,3.494,3.4947,3.4951,3.4954,3.5292,3.5296,0,0,0,0,0,0,3.4629,3.4646,3.4812,3.4817,3.4692,3.476,3.477,3.4812,3.4861,3.4864,3.4811,3.4805,3.49,3.4912,3.4923,3.5076,3.4948,3.4955,3.4959,3.5288,3.5293,3.5298,0,0,0,0,0,0,3.4625,3.4645,3.4808,3.4731,3.475,3.4768,3.4816,3.4816,3.4845,3.487,3.4872,3.4838,3.4898,3.4913,3.5014,3.5078,3.4958,3.4965,3.5282,3.5289,3.5295,3.538,0,0,0,0,0,0,3.4619,3.4643,3.4691,3.4732,3.4755,3.4897,3.482,3.4821,3.4858,3.4851,3.4895,3.4899,3.4896,3.5003,3.5022,3.5086,3.4971,3.5277,3.5285,3.5293,3.5372,3.5389,3.5404,0,0,0,0,0,3.4611,3.4711,3.4694,3.4714,3.4815,3.4901,3.4914,3.4909,3.4864,3.4912,3.4928,3.4897,3.5068,3.5014,3.5034,3.5102,3.5273,3.5283,3.5293,3.5365,3.5386,3.5403,0,0,0,0,0,0,3.4676,3.4716,3.4698,3.4814,3.4855,3.4891,3.4952,3.4931,3.4985,3.4976,3.4967,3.4977,3.5083,3.5103,3.5042,3.5228,3.5163,3.5178,3.5211,3.5231,3.5247,3.524,3.4977,0,0,0,0,0,3.4704,3.477,3.4802,3.4901,3.4923,3.4935,3.4972,3.4965,3.5006,3.5023,3.5046,3.5087,3.515,3.5192,3.5251,3.5375,3.5384,3.5431,3.5447,3.546,3.5473,3.5541,3.5563,3.5331,3.5331,3.5331,0,0,3.4762,3.4792,3.4835,3.4915,3.4946,3.5015,3.4949,3.5025,3.5076,3.5034,3.5131,3.515,3.5196,3.5309,3.536,3.5329,3.554,3.5473,3.5483,3.5489,3.5554,3.5576,3.5595,3.5338,3.5336,3.5335,0,0,3.4904,3.4933,3.502,3.5053,3.5101,3.5108,3.5129,3.517,3.5181,3.5279,3.525,3.5311,3.5419,3.5454,3.5485,3.5643,3.5617,3.5662,3.5746,3.5812,3.5831,3.5847,3.5904,3.5925,3.5675,3.5675,3.5675,0,3.497,3.5074,3.5068,3.5147,3.5183,3.515,3.5238,3.527,3.5334,3.5361,3.5325,3.5462,3.549,3.5612,3.565,3.5677,3.5701,3.5657,3.5829,3.5845,3.586,3.5914,3.5936,3.568,3.568,3.5679,3.5679,0,3.5154,3.5226,3.5291,3.5355,3.5399,3.5482,3.5489,3.5535,3.5525,3.5536,3.5637,3.567,3.5737,3.5765,3.5755,3.5886,3.5865,3.5829,3.5764,3.5887,3.5938,3.5959,3.5688,3.5686,3.5685,3.5683,0,0,3.5337,3.5399,3.5423,3.5453,3.5504,3.556,3.5642,3.5708,3.5748,3.5794,3.5863,3.5957,3.5925,3.5961,3.5955,3.6013,3.6138,3.597,3.5971,3.6001,3.6286,3.6313,3.6337,3.6121,3.6125,3.6128,3.6282,0,3.5483,3.5627,3.5625,3.5759,3.5827,3.5797,3.5869,3.5908,3.5922,3.5981,3.5995,3.6063,3.6014,3.6036,3.6093,3.6111,3.6195,3.6099,3.6185,3.6189,3.6175,3.6363,3.6391,3.6535,3.6302,3.6305,3.6308,0,3.5672,3.5726,3.5867,3.591,3.5938,3.6003,3.6064,3.6121,3.6166,3.6171,3.6213,3.6199,3.6283,3.6216,3.6333,3.6268,3.6303,3.6317,3.6323,3.633,3.6255,3.6376,3.658,3.6602,3.6339,3.6336,3.6334,0,3.5793,3.5901,3.5999,3.6026,3.6078,3.6125,3.6149,3.619,3.623,3.6283,3.631,3.6372,3.6406,3.6455,3.6458,3.6409,3.6576,3.6509,3.6584,3.6584,3.662,3.6617,3.6833,3.6642,3.6642,3.6642,3.6641,0,3.5956,3.6043,3.6055,3.6116,3.6213,3.6211,3.6307,3.6327,3.6364,3.6428,3.6406,3.6467,3.6467,3.653,3.6532,3.6629,3.6645,3.6652,3.6652,3.6654,3.6653,3.6677,3.6667,3.6647,3.6646,3.6645,3.6644,0,3.6107,3.6118,3.6224,3.6266,3.6279,3.6349,3.6385,3.6443,3.6455,3.6537,3.6556,3.6575,3.6648,3.6656,3.674,3.6742,3.6859,3.6848,3.6844,3.6842,3.6916,3.691,3.7155,3.7187,3.6975,3.6977,3.6979,0,3.6211,3.6277,3.6327,3.6369,3.6396,3.6464,3.6505,3.6506,3.655,3.6607,3.6659,3.6729,3.6786,3.6903,3.6924,3.6989,3.6979,3.7061,3.6989,3.699,3.6981,3.6977,3.6984,3.7075,3.7077,3.7079,3.708,0,3.6393,3.6396,3.6457,3.6521,3.6571,3.6621,3.6668,3.6703,3.671,3.6761,3.6835,3.6879,3.6966,3.7036,3.7101,3.7125,3.7105,3.7103,3.7124,3.7127,3.7122,3.7127,3.6882,3.7097,3.7096,3.7094,3.7093,3.7093,3.6524,3.6583,3.6627,3.6697,3.6732,3.6777,3.6834,3.6855,3.6917,3.6988,3.6984,3.7067,3.7111,3.7195,3.7225,3.729,3.7263,3.7292,3.73,3.7307,3.7315,3.7112,3.7301,3.7301,3.73,3.73,3.73,0,3.6706,3.6734,3.6797,3.6864,3.6919,3.6896,3.6947,3.6995,3.7067,3.7111,3.7168,3.7254,3.7323,3.735,3.7418,3.7464,3.7457,3.7482,3.7479,3.7485,3.7335,3.7311,3.7487,3.7487,3.7487,3.7487,3.7487,3.7487,3.6807,3.6905,3.6914,3.703,3.7057,3.7138,3.717,3.7211,3.7246,3.7344,3.7402,3.7419,3.7457,3.7528,3.759,3.7597,3.7623,3.7653,3.7655,3.7514,3.7495,3.7477,3.7454,3.7658,3.7658,3.7799,3.7801,3.7802]},{"header":{"parameterUnit":"m.s-1","parameterCategory":1,"la1":30.2991,"la2":30.254,"lo1":-89.0895,"lo2":-89.0444,"dy":0.0017,"dx":0.0017,"nx":28,"ny":28,"refTime":"2025-07-13T09:00:00:Z","depth":0,"parameterNumber":3,"parameterNumberName":"V-component_of_WINDS"},"data":[0,0,0,0,0,0,0,0,0,0,0,0,0,0,0,0,0,0,0,0,0,0,0,0,0,0,0,0,0,0,0,0,0,0,0,0,0,0,0,0,0,0,0,0,0,0,0,0,0,0,0,0,0,0,0,0,0,0,-2.3593,-2.3593,0,-2.3666,-2.3666,-2.3667,-2.3647,-2.3645,-2.3644,-2.3642,-2.3716,-2.3719,-2.3722,0,0,0,0,0,0,0,0,0,0,0,0,0,-2.3434,-2.3437,-2.3592,-2.3593,-2.3594,-2.3665,-2.3666,-2.3667,-2.3647,-2.3645,-2.3643,-2.3641,-2.3715,-2.3718,-2.3722,0,0,0,0,0,0,0,0,0,0,0,0,0,-2.3505,-2.3438,-2.3592,-2.3593,-2.3593,-2.3665,-2.3666,-2.3668,-2.3647,-2.3645,-2.3643,-2.3641,-2.3713,-2.3718,-2.3723,-2.3799,0,0,-2.3738,-2.374,0,0,0,0,0,0,0,0,-2.3501,-2.3511,-2.3592,-2.3593,-2.3594,-2.3645,-2.3638,-2.3712,-2.3648,-2.3627,-2.3642,-2.364,-2.3694,-2.37,-2.3719,-2.3802,-2.3805,-2.3739,-2.3742,-2.3744,-2.3745,0,0,0,0,0,0,0,-2.3496,-2.3507,-2.3621,-2.3593,-2.3594,-2.3589,-2.3596,-2.3651,-2.3672,-2.3628,-2.3627,-2.3636,-2.3694,-2.3714,-2.372,-2.3806,-2.3739,-2.3743,-2.3746,-2.3748,-2.3956,-2.3958,0,0,0,0,0,0,-2.349,-2.3503,-2.3619,-2.3623,-2.3541,-2.3594,-2.3602,-2.3631,-2.3671,-2.3675,-2.3638,-2.3635,-2.3706,-2.3714,-2.3723,-2.3814,-2.3744,-2.3749,-2.3751,-2.3953,-2.3956,-2.3959,0,0,0,0,0,0,-2.3487,-2.3501,-2.3616,-2.3563,-2.3577,-2.3599,-2.3631,-2.3633,-2.3653,-2.3678,-2.3682,-2.3655,-2.3705,-2.3716,-2.378,-2.3816,-2.3751,-2.3755,-2.395,-2.3954,-2.3958,-2.3998,0,0,0,0,0,0,-2.3483,-2.35,-2.3529,-2.3564,-2.358,-2.3672,-2.3633,-2.3636,-2.3662,-2.3659,-2.3695,-2.3699,-2.3704,-2.3773,-2.3785,-2.3822,-2.3759,-2.3947,-2.3952,-2.3956,-2.3993,-2.4002,-2.401,0,0,0,0,0,-2.3477,-2.3537,-2.3531,-2.3545,-2.3617,-2.3675,-2.3684,-2.3689,-2.3665,-2.3694,-2.3711,-2.3698,-2.3811,-2.378,-2.3793,-2.3832,-2.3945,-2.3951,-2.3956,-2.3989,-2.4,-2.401,0,0,0,0,0,0,-2.3505,-2.3541,-2.3535,-2.3608,-2.3638,-2.3671,-2.3708,-2.3701,-2.3738,-2.3733,-2.3738,-2.3746,-2.3812,-2.3829,-2.3793,-2.3908,-2.3874,-2.3883,-2.3895,-2.3906,-2.3914,-2.3908,-2.3764,0,0,0,0,0,-2.352,-2.3564,-2.3593,-2.3655,-2.367,-2.3687,-2.3712,-2.3713,-2.3745,-2.3758,-2.3778,-2.3809,-2.3852,-2.388,-2.392,-2.3995,-2.4003,-2.4029,-2.4038,-2.4045,-2.4052,-2.4094,-2.4106,-2.3977,-2.3977,-2.3977,0,0,-2.355,-2.3576,-2.3603,-2.3661,-2.3685,-2.373,-2.3698,-2.3747,-2.378,-2.3765,-2.3827,-2.3844,-2.3878,-2.3949,-2.3981,-2.3965,-2.4089,-2.4052,-2.4057,-2.4061,-2.4101,-2.4113,-2.4123,-2.3981,-2.3981,-2.398,0,0,-2.3629,-2.3653,-2.3707,-2.3732,-2.3769,-2.3779,-2.3792,-2.3827,-2.3837,-2.39,-2.3889,-2.3929,-2.4002,-2.4028,-2.405,-2.414,-2.4129,-2.4153,-2.4197,-2.4237,-2.4247,-2.4256,-2.4289,-2.43,-2.416,-2.416,-2.416,0,-2.3663,-2.3731,-2.3736,-2.3786,-2.3812,-2.3801,-2.3856,-2.3879,-2.3927,-2.3945,-2.3926,-2.4018,-2.4041,-2.4117,-2.4139,-2.4158,-2.4173,-2.4148,-2.4246,-2.4255,-2.4263,-2.4294,-2.4306,-2.4163,-2.4162,-2.4162,-2.4162,0,-2.377,-2.3817,-2.3857,-2.3904,-2.3934,-2.3986,-2.3999,-2.4029,-2.4028,-2.4041,-2.4105,-2.4132,-2.4178,-2.4196,-2.4195,-2.4273,-2.4262,-2.4244,-2.421,-2.4278,-2.4307,-2.4319,-2.4166,-2.4165,-2.4165,-2.4164,0,0,-2.3868,-2.3918,-2.3932,-2.3954,-2.3994,-2.4031,-2.4083,-2.4128,-2.4154,-2.4187,-2.4231,-2.4293,-2.4278,-2.4304,-2.4306,-2.4341,-2.4411,-2.432,-2.432,-2.4336,-2.4498,-2.4511,-2.4525,-2.4404,-2.4407,-2.4408,-2.4495,0,-2.3951,-2.4042,-2.4049,-2.4132,-2.4175,-2.4166,-2.4211,-2.4241,-2.4254,-2.4293,-2.4308,-2.4352,-2.4328,-2.4344,-2.4378,-2.4395,-2.4444,-2.4389,-2.4445,-2.4447,-2.4437,-2.454,-2.4553,-2.4634,-2.4507,-2.4509,-2.451,0,-2.4059,-2.4097,-2.4184,-2.4219,-2.4237,-2.4278,-2.432,-2.4358,-2.4391,-2.4398,-2.4428,-2.4425,-2.4478,-2.4443,-2.4516,-2.4479,-2.4502,-2.4514,-2.4517,-2.4523,-2.4482,-2.4548,-2.466,-2.4672,-2.4528,-2.4526,-2.4525,0,-2.4122,-2.4195,-2.4256,-2.4275,-2.4317,-2.4346,-2.4364,-2.4395,-2.4423,-2.446,-2.4477,-2.452,-2.4543,-2.4576,-2.4585,-2.4559,-2.4659,-2.4624,-2.4666,-2.4666,-2.4688,-2.4686,-2.4805,-2.4703,-2.4703,-2.4702,-2.4702,0,-2.4214,-2.4268,-2.4285,-2.4323,-2.4384,-2.439,-2.445,-2.4466,-2.4494,-2.4536,-2.453,-2.4568,-2.4578,-2.4618,-2.4626,-2.4686,-2.4696,-2.4703,-2.4705,-2.4704,-2.4703,-2.4719,-2.4714,-2.4706,-2.4705,-2.4704,-2.4704,0,-2.4294,-2.4308,-2.4375,-2.4409,-2.4419,-2.4462,-2.4491,-2.4528,-2.4541,-2.4593,-2.4606,-2.4626,-2.4673,-2.4685,-2.4742,-2.4747,-2.4818,-2.4813,-2.4807,-2.4806,-2.4848,-2.4844,-2.4982,-2.5,-2.4886,-2.4887,-2.4888,0,-2.4352,-2.4393,-2.4432,-2.4459,-2.448,-2.4524,-2.4551,-2.456,-2.4589,-2.4631,-2.4662,-2.4709,-2.4747,-2.4823,-2.4843,-2.4886,-2.4883,-2.4928,-2.4889,-2.4888,-2.4884,-2.4882,-2.4886,-2.4935,-2.4937,-2.4938,-2.4938,0,-2.4452,-2.4458,-2.4498,-2.4542,-2.4575,-2.461,-2.4643,-2.4665,-2.4678,-2.4712,-2.476,-2.479,-2.4848,-2.4895,-2.4938,-2.4957,-2.4951,-2.4951,-2.4963,-2.4963,-2.4957,-2.4961,-2.4827,-2.4947,-2.4946,-2.4946,-2.4945,-2.4945,-2.4523,-2.456,-2.4593,-2.4639,-2.4665,-2.4696,-2.4732,-2.475,-2.4791,-2.4839,-2.4841,-2.4895,-2.4927,-2.4986,-2.5007,-2.5049,-2.5035,-2.5053,-2.5057,-2.5061,-2.5065,-2.495,-2.5057,-2.5056,-2.5056,-2.5056,-2.5056,0,-2.4624,-2.4645,-2.4687,-2.4734,-2.477,-2.4761,-2.4797,-2.4827,-2.4874,-2.4906,-2.4943,-2.5,-2.5045,-2.5069,-2.5114,-2.5143,-2.5141,-2.5154,-2.5152,-2.5157,-2.5075,-2.506,-2.5155,-2.5155,-2.5155,-2.5155,-2.5155,-2.5155,-2.4681,-2.4742,-2.4751,-2.4826,-2.4846,-2.4899,-2.492,-2.4949,-2.4974,-2.5037,-2.5075,-2.5091,-2.5119,-2.5166,-2.5207,-2.5213,-2.523,-2.5246,-2.525,-2.5172,-2.5162,-2.5153,-2.5139,-2.5249,-2.5249,-2.5328,-2.5329,-2.533]}]]